CW3281 Weather Reports


time (UTC)temp
C
wind
direction
speed
KPH
gust
KPH
rain 1hr
cm
rain 24hr
cm
rain mn
cm
humidity
%
barometer
mb
20260507105554 2 115 3.2 6.4 0.00 0.00 0.00 87 1020.0
20260507105054 2 119 3.2 6.4 0.00 0.00 0.00 88 1020.1
20260507104558 2 115 3.2 6.4 0.00 0.00 0.00 87 1020.3
20260507104055 2 114 3.2 6.4 0.00 0.00 0.00 88 1020.2
20260507103553 2 119 3.2 8.0 0.00 0.00 0.00 87 1020.2
20260507103114 2 119 3.2 8.0 0.00 0.00 0.00 87 1020.2
20260507102555 2 102 1.6 6.4 0.00 0.00 0.00 87 1020.2
20260507102055 2 137 1.6 4.8 0.00 0.00 0.00 87 1020.2
20260507101601 2 126 3.2 4.8 0.00 0.00 0.00 87 1020.2
20260507101054 2 126 1.6 4.8 0.00 0.00 0.00 87 1020.2
20260507100554 2 144 1.6 6.4 0.00 0.00 0.00 87 1020.1
20260507100113 2 126 3.2 6.4 0.00 0.00 0.00 87 1020.1
20260507095559 2 119 3.2 6.4 0.00 0.00 0.00 87 1020.1
20260507095055 2 153 3.2 6.4 0.00 0.00 0.00 87 1020.1
20260507094556 2 137 3.2 6.4 0.00 0.00 0.00 87 1020.0
20260507094055 2 119 3.2 6.4 0.00 0.00 0.00 87 1019.9
20260507093555 2 113 3.2 6.4 0.00 0.00 0.00 87 1019.8
20260507093109 2 134 3.2 6.4 0.00 0.00 0.00 87 1019.8
20260507092555 2 121 3.2 6.4 0.00 0.00 0.00 87 1019.8
20260507092055 2 126 3.2 6.4 0.00 0.00 0.00 86 1019.8
20260507091603 2 128 3.2 6.4 0.00 0.00 0.00 86 1019.8
20260507091055 2 110 3.2 6.4 0.00 0.00 0.00 86 1019.7
20260507090556 2 123 3.2 9.7 0.00 0.00 0.00 86 1019.6
20260507090103 2 119 3.2 9.7 0.00 0.00 0.00 86 1019.6
20260507085555 2 113 4.8 9.7 0.00 0.00 0.00 86 1019.6
20260507085055 2 115 4.8 9.7 0.00 0.00 0.00 86 1019.5
20260507084559 2 132 4.8 9.7 0.00 0.00 0.00 86 1019.4
20260507084054 2 126 4.8 9.7 0.00 0.00 0.00 87 1019.3
20260507083555 2 113 3.2 9.7 0.00 0.00 0.00 86 1019.3
20260507083112 2 137 3.2 9.7 0.00 0.00 0.00 87 1019.1
20260507082556 2 212 4.8 9.7 0.00 0.00 0.00 87 1019.1
20260507082058 2 139 4.8 6.4 0.00 0.00 0.00 87 1019.0
20260507081601 2 121 3.2 6.4 0.00 0.00 0.00 87 1018.9
20260507081055 2 113 3.2 11.3 0.00 0.00 0.00 87 1018.9
20260507080554 2 119 3.2 11.3 0.00 0.00 0.00 87 1018.8
20260507080059 2 131 3.2 11.3 0.00 0.00 0.00 87 1018.9
20260507075553 2 119 3.2 11.3 0.00 0.08 0.00 87 1018.9
20260507075055 2 119 3.2 6.4 0.00 0.08 0.00 87 1018.8
20260507074616 2 133 3.2 4.8 0.00 0.08 0.00 87 1018.8
20260507074054 2 103 1.6 4.8 0.00 0.08 0.00 86 1018.8
20260507073555 3 128 3.2 4.8 0.00 0.08 0.00 86 1018.8
20260507073101 3 108 1.6 4.8 0.00 0.08 0.00 85 1018.8
20260507072555 3 137 1.6 11.3 0.00 0.08 0.00 84 1018.7
20260507072055 3 126 1.6 11.3 0.00 0.08 0.00 84 1018.8
20260507071554 3 142 3.2 9.7 0.00 0.08 0.00 84 1018.7
20260507071051 3 128 3.2 11.3 0.00 0.08 0.00 84 1018.7
20260507070550 3 163 3.2 12.9 0.00 0.08 0.00 85 1018.7
20260507070053 3 146 4.8 12.9 0.00 0.08 0.00 85 1018.6
20260507065551 3 128 3.2 8.0 0.00 0.08 0.00 86 1018.6
20260507065050 3 87 3.2 8.0 0.00 0.08 0.00 86 1018.5
20260507064555 3 137 3.2 6.4 0.00 0.08 0.00 87 1018.5
20260507064054 3 126 1.6 4.8 0.00 0.08 0.00 86 1018.4
20260507063554 3 132 1.6 4.8 0.00 0.08 0.00 86 1018.4
20260507063056 3 111 1.6 4.8 0.00 0.08 0.00 86 1018.3
20260507062552 3 124 1.6 4.8 0.00 0.08 0.00 86 1018.2
20260507062051 3 113 1.6 6.4 0.00 0.08 0.00 86 1018.3
20260507061601 3 137 1.6 6.4 0.00 0.08 0.00 86 1018.2
20260507061051 3 110 1.6 6.4 0.00 0.08 0.00 86 1018.1
20260507060550 3 133 1.6 6.4 0.00 0.08 0.00 86 1018.1
20260507060059 3 110 3.2 6.4 0.00 0.08 0.00 86 1018.0
20260507055551 3 123 3.2 6.4 0.00 0.08 0.00 86 1018.0
20260507055053 3 123 1.6 6.4 0.00 0.08 0.00 86 1017.9
20260507054555 3 137 1.6 9.7 0.00 0.08 0.00 86 1017.9
20260507054051 3 102 3.2 9.7 0.00 0.08 0.00 85 1017.9
20260507053551 3 205 3.2 14.5 0.00 0.08 0.00 85 1017.9
20260507053057 3 144 3.2 14.5 0.00 0.08 0.00 84 1017.9
20260507052553 4 144 3.2 11.3 0.00 0.08 0.00 84 1017.8
20260507052050 4 178 3.2 11.3 0.00 0.08 0.00 84 1017.8
20260507051554 4 133 3.2 11.3 0.00 0.08 0.00 83 1017.7
20260507051054 4 93 3.2 14.5 0.00 0.08 0.00 84 1017.8
20260507050554 4 119 3.2 14.5 0.00 0.08 0.00 84 1017.7
20260507050059 4 163 3.2 14.5 0.00 0.08 0.00 84 1017.7
20260507045553 4 171 3.2 14.5 0.00 0.08 0.00 84 1017.6
20260507045051 4 175 6.4 14.5 0.00 0.08 0.00 84 1017.7
20260507044553 4 119 4.8 11.3 0.00 0.08 0.00 83 1017.6
20260507044053 5 150 3.2 11.3 0.00 0.08 0.00 83 1017.6
20260507043551 5 139 4.8 12.9 0.00 0.08 0.00 82 1017.6
20260507043101 5 142 4.8 12.9 0.00 0.08 0.00 82 1017.5
20260507042551 5 162 3.2 9.7 0.00 0.08 0.00 81 1017.5
20260507042050 5 149 4.8 16.1 0.00 0.08 0.00 80 1017.5
20260507041553 5 149 6.4 16.1 0.00 0.08 0.00 78 1017.5
20260507041050 5 144 4.8 12.9 0.00 0.08 0.00 78 1017.5
20260507040551 5 119 3.2 12.9 0.00 0.08 0.00 79 1017.4
20260507040055 5 86 3.2 11.3 0.00 0.08 0.00 80 1017.4
20260507035551 6 102 3.2 16.1 0.00 0.08 0.00 79 1017.4
20260507035050 6 131 4.8 16.1 0.00 0.08 0.00 78 1017.3
20260507034553 6 123 6.4 16.1 0.00 0.08 0.00 80 1017.3
20260507034052 6 161 4.8 12.9 0.00 0.08 0.00 80 1017.3
20260507033551 6 132 3.2 11.3 0.00 0.08 0.00 81 1017.2
20260507033055 6 117 3.2 11.3 0.00 0.08 0.00 81 1017.3
20260507032551 6 110 4.8 9.7 0.00 0.08 0.00 81 1017.3
20260507032055 5 153 4.8 12.9 0.00 0.08 0.00 80 1017.3
20260507031553 6 126 3.2 12.9 0.00 0.08 0.00 80 1017.1
20260507031054 6 150 3.2 14.5 0.00 0.08 0.00 80 1017.1
20260507030552 6 130 3.2 14.5 0.00 0.08 0.00 81 1017.0
20260507030053 6 121 3.2 14.5 0.00 0.08 0.00 80 1017.0
20260507025554 6 139 4.8 14.5 0.00 0.08 0.00 80 1017.0
20260507025054 6 139 4.8 14.5 0.00 0.08 0.00 79 1017.0
20260507024611 6 134 4.8 11.3 0.00 0.08 0.00 80 1017.0
20260507024050 6 164 1.6 4.8 0.00 0.08 0.00 83 1017.0
20260507023557 5 137 1.6 6.4 0.00 0.08 0.00 82 1016.9
20260507023056 6 171 0.0 8.0 0.00 0.08 0.00 82 1016.8
20260507022554 6 265 3.2 11.3 0.00 0.08 0.00 81 1016.8
20260507022054 6 183 3.2 11.3 0.00 0.08 0.00 80 1016.8
20260507021557 6 156 4.8 11.3 0.00 0.08 0.00 79 1016.8
20260507021050 6 141 1.6 11.3 0.00 0.08 0.00 79 1016.8
20260507020551 6 144 4.8 11.3 0.00 0.08 0.00 78 1016.7
20260507020108 6 146 1.6 9.7 0.00 0.08 0.00 78 1016.7
20260507015551 6 0 1.6 9.7 0.00 0.08 0.00 77 1016.7
20260507015051 6 207 4.8 9.7 0.00 0.08 0.00 76 1016.6
20260507014606 6 200 1.6 9.7 0.00 0.08 0.00 75 1016.6
20260507014051 6 184 4.8 14.5 0.00 0.08 0.00 73 1016.6
20260507013552 6 247 4.8 14.5 0.00 0.08 0.00 73 1016.5
20260507013054 7 129 4.8 14.5 0.00 0.08 0.00 72 1016.5
20260507012554 7 160 4.8 11.3 0.00 0.08 0.00 73 1016.5
20260507012051 6 175 4.8 11.3 0.00 0.08 0.00 75 1016.6
20260507011604 6 165 4.8 11.3 0.00 0.08 0.00 75 1016.5
20260507011050 6 173 0.0 6.4 0.00 0.08 0.00 78 1016.6
20260507010551 6 161 1.6 6.4 0.00 0.08 0.00 78 1016.6
20260507010054 6 115 3.2 11.3 0.00 0.08 0.00 78 1016.6
20260507005552 6 157 3.2 12.9 0.00 0.08 0.00 80 1016.7
20260507005052 6 178 1.6 12.9 0.00 0.08 0.00 81 1016.6
20260507004556 6 178 3.2 12.9 0.00 0.08 0.00 80 1016.6
20260507004051 6 265 1.6 12.9 0.00 0.08 0.00 80 1016.6
20260507003552 6 218 3.2 12.9 0.00 0.08 0.00 78 1016.6
20260507003057 7 162 4.8 12.9 0.00 0.08 0.00 72 1016.5
20260507002551 7 137 3.2 12.9 0.00 0.08 0.00 70 1016.5
20260507002057 7 161 1.6 11.3 0.00 0.08 0.00 70 1016.5
20260507001557 7 0 3.2 11.3 0.00 0.08 0.00 71 1016.4
20260507001053 7 165 3.2 14.5 0.00 0.08 0.00 70 1016.4
20260507000551 7 227 4.8 16.1 0.00 0.08 0.00 70 1016.5
20260507000056 7 221 8.0 16.1 0.00 0.08 0.00 71 1016.5
20260506235552 7 225 6.4 16.1 0.00 0.08 0.00 72 1016.4
20260506235051 7 139 6.4 16.1 0.00 0.08 0.00 70 1016.3
20260506234601 7 196 4.8 14.5 0.00 0.08 0.00 69 1016.4
20260506234055 7 142 3.2 11.3 0.00 0.08 0.00 71 1016.3
20260506233556 7 249 3.2 11.3 0.00 0.08 0.00 70 1016.3
20260506233058 7 216 3.2 9.7 0.00 0.08 0.00 71 1016.3
20260506232553 7 146 3.2 9.7 0.00 0.08 0.00 73 1016.2
20260506232053 7 218 3.2 12.9 0.00 0.08 0.00 74 1016.3
20260506231558 7 129 3.2 12.9 0.00 0.08 0.00 74 1016.2
20260506231056 7 171 4.8 12.9 0.00 0.08 0.00 74 1016.3
20260506230552 6 165 3.2 9.7 0.00 0.08 0.00 73 1016.2
20260506230059 6 217 3.2 9.7 0.00 0.08 0.00 74 1016.1
20260506225554 6 200 3.2 9.7 0.00 0.08 0.00 75 1016.2
20260506225053 6 254 3.2 6.4 0.00 0.08 0.00 75 1016.2
20260506224556 6 241 1.6 11.3 0.00 0.08 0.00 74 1016.1
20260506224053 6 265 3.2 11.3 0.00 0.08 0.00 74 1016.1
20260506223553 6 294 3.2 11.3 0.00 0.08 0.00 74 1016.2
20260506223057 6 147 3.2 11.3 0.00 0.08 0.00 74 1016.1
20260506222553 6 228 4.8 11.3 0.00 0.08 0.00 74 1016.0
20260506222051 6 193 3.2 11.3 0.00 0.08 0.00 76 1016.1
20260506221559 6 265 4.8 12.9 0.00 0.08 0.00 76 1016.1
20260506221054 6 225 3.2 12.9 0.00 0.08 0.00 77 1016.1
20260506220553 6 186 4.8 12.9 0.00 0.08 0.00 78 1016.1
20260506220057 6 275 3.2 9.7 0.00 0.08 0.00 78 1016.1
20260506215552 6 131 1.6 6.4 0.00 0.08 0.00 80 1016.0
20260506215054 6 221 1.6 6.4 0.00 0.08 0.00 81 1016.1
20260506214555 6 208 1.6 6.4 0.00 0.08 0.00 80 1016.1
20260506214054 6 265 1.6 6.4 0.00 0.08 0.00 78 1016.0
20260506213553 6 0 1.6 6.4 0.00 0.08 0.00 77 1016.0
20260506213122 6 286 1.6 6.4 0.00 0.08 0.00 78 1015.9
20260506212555 6 212 1.6 8.0 0.00 0.08 0.00 78 1015.9
20260506212055 6 243 1.6 8.0 0.00 0.08 0.00 78 1015.9
20260506211605 6 138 1.6 6.4 0.00 0.08 0.00 80 1015.8
20260506211053 6 123 3.2 6.4 0.00 0.08 0.00 80 1015.8
20260506210554 6 196 1.6 11.3 0.00 0.08 0.00 79 1015.8
20260506205553 5 131 3.2 12.9 0.00 0.08 0.00 77 1015.8
20260506205053 5 205 3.2 12.9 0.00 0.08 0.00 78 1015.8
20260506204557 5 212 3.2 11.3 0.00 0.08 0.00 78 1015.7
20260506204053 5 123 1.6 12.9 0.00 0.08 0.00 78 1015.7
20260506203553 5 126 3.2 12.9 0.00 0.08 0.00 77 1015.7
20260506203053 5 291 1.6 11.3 0.00 0.08 0.00 79 1015.7
20260506202555 5 178 3.2 11.3 0.00 0.08 0.00 76 1015.6
20260506202057 5 165 3.2 11.3 0.00 0.08 0.00 79 1015.6
20260506201600 5 221 1.6 9.7 0.00 0.08 0.00 80 1015.6
20260506201056 5 227 3.2 9.7 0.00 0.08 0.00 79 1015.5
20260506200552 5 142 3.2 11.3 0.00 0.08 0.00 80 1015.5
20260506200101 5 309 1.6 11.3 0.00 0.08 0.00 80 1015.5
20260506195552 5 153 3.2 11.3 0.00 0.08 0.00 79 1015.4
20260506195052 5 0 3.2 8.0 0.00 0.08 0.00 81 1015.3
20260506194623 5 178 3.2 9.7 0.00 0.08 0.00 81 1015.3
20260506194054 5 163 1.6 9.7 0.00 0.08 0.00 83 1015.4
20260506193554 5 142 1.6 6.4 0.00 0.08 0.00 82 1015.3
20260506193057 5 157 1.6 8.0 0.00 0.08 0.00 81 1015.3
20260506192554 5 167 1.6 9.7 0.00 0.08 0.00 81 1015.3
20260506192055 5 153 3.2 9.7 0.00 0.08 0.00 79 1015.3
20260506191607 5 277 1.6 4.8 0.00 0.08 0.00 79 1015.2
20260506191053 5 221 1.6 9.7 0.00 0.08 0.00 81 1015.3
20260506190553 5 0 3.2 9.7 0.00 0.08 0.00 80 1015.2
20260506190058 5 0 3.2 9.7 0.00 0.08 0.00 81 1015.2
20260506185552 5 196 3.2 8.0 0.00 0.08 0.00 81 1015.2
20260506185054 4 162 3.2 8.0 0.00 0.08 0.00 81 1015.1
20260506184609 4 137 1.6 6.4 0.00 0.08 0.00 81 1015.2
20260506184053 4 250 1.6 6.4 0.00 0.08 0.00 82 1015.2
20260506183554 5 238 1.6 6.4 0.00 0.08 0.00 82 1015.1
20260506183102 5 161 1.6 6.4 0.00 0.08 0.00 81 1015.1
20260506182553 5 0 1.6 6.4 0.00 0.08 0.00 82 1015.1
20260506182056 5 273 1.6 6.4 0.00 0.08 0.00 84 1015.1
20260506181552 5 238 1.6 3.2 0.00 0.08 0.00 83 1015.1
20260506181054 5 291 1.6 8.0 0.00 0.08 0.00 82 1015.0
20260506180555 5 0 1.6 11.3 0.00 0.08 0.00 82 1015.0
20260506180054 5 22 1.6 11.3 0.00 0.08 0.00 80 1015.0
20260506175552 5 137 1.6 8.0 0.00 0.08 0.00 80 1015.0
20260506175052 5 119 0.0 4.8 0.00 0.08 0.00 82 1015.0
20260506174551 5 67 1.6 4.8 0.00 0.08 0.00 82 1014.9
20260506174054 5 113 1.6 8.0 0.00 0.08 0.00 83 1014.9
20260506173551 4 146 1.6 9.7 0.00 0.08 0.00 84 1015.0
20260506173103 4 76 1.6 9.7 0.00 0.08 0.00 83 1014.9
20260506172554 4 169 3.2 8.0 0.00 0.08 0.00 83 1014.9
20260506172050 4 134 1.6 9.7 0.00 0.08 0.00 84 1014.8
20260506171555 4 0 1.6 9.7 0.00 0.08 0.00 84 1014.9
20260506171057 4 126 1.6 9.7 0.00 0.08 0.00 84 1014.8
20260506170554 4 178 3.2 9.7 0.00 0.08 0.00 83 1014.8
20260506170113 4 158 1.6 8.0 0.00 0.08 0.00 85 1014.7
20260506165553 4 171 1.6 8.0 0.00 0.08 0.00 83 1014.6
20260506165054 4 108 3.2 8.0 0.00 0.08 0.00 84 1014.7
20260506164552 4 190 1.6 8.0 0.00 0.08 0.00 83 1014.7
20260506164052 4 93 1.6 8.0 0.00 0.08 0.00 84 1014.6
20260506163555 4 108 1.6 8.0 0.00 0.08 0.00 85 1014.6
20260506163104 3 205 3.2 8.0 0.00 0.08 0.00 84 1014.5
20260506162553 3 128 3.2 8.0 0.00 0.08 0.00 85 1014.5
20260506162053 3 0 1.6 6.4 0.00 0.08 0.00 85 1014.5
20260506161554 3 165 1.6 4.8 0.00 0.08 0.00 86 1014.4
20260506161052 3 133 1.6 4.8 0.00 0.08 0.00 85 1014.3
20260506160553 3 126 1.6 6.4 0.00 0.08 0.00 85 1014.3
20260506160107 3 146 1.6 6.4 0.00 0.08 0.00 86 1014.3
20260506155550 3 105 1.6 4.8 0.00 0.08 0.00 87 1014.3
20260506155055 3 123 1.6 4.8 0.00 0.08 0.00 88 1014.2
20260506154604 3 0 0.0 3.2 0.00 0.08 0.00 88 1014.2
20260506154053 3 115 1.6 3.2 0.00 0.08 0.00 88 1014.1
20260506153554 3 93 1.6 3.2 0.00 0.08 0.00 88 1014.1
20260506153054 3 115 1.6 4.8 0.00 0.08 0.00 87 1014.1
20260506152553 3 93 1.6 4.8 0.00 0.08 0.00 88 1014.2
20260506152053 3 126 1.6 3.2 0.00 0.08 0.00 87 1014.2
20260506151558 3 129 1.6 3.2 0.00 0.08 0.00 87 1014.2
20260506151058 3 123 1.6 3.2 0.00 0.08 0.00 87 1014.1
20260506150552 3 165 1.6 3.2 0.00 0.08 0.00 87 1014.1
20260506150101 3 115 1.6 3.2 0.00 0.08 0.00 87 1014.1
20260506145554 3 119 0.0 1.6 0.00 0.08 0.00 88 1014.0
20260506145056 3 0 0.0 3.2 0.00 0.08 0.00 88 1014.1
20260506144606 3 126 0.0 3.2 0.00 0.08 0.00 88 1014.0
20260506144050 3 41 1.6 3.2 0.00 0.08 0.00 88 1014.0
20260506143550 2 126 0.0 3.2 0.00 0.08 0.00 88 1014.0
20260506143103 2 0 0.0 3.2 0.00 0.08 0.00 89 1014.0
20260506142552 2 129 0.0 4.8 0.00 0.08 0.00 89 1014.0
20260506142055 2 137 0.0 4.8 0.00 0.08 0.00 89 1014.0
20260506141555 2 0 1.6 4.8 0.00 0.08 0.00 89 1014.0
20260506141054 2 131 1.6 3.2 0.00 0.08 0.00 89 1014.0
20260506140553 2 119 1.6 3.2 0.00 0.08 0.00 89 1014.0
20260506140055 2 105 1.6 3.2 0.00 0.08 0.00 89 1014.0
20260506135553 2 119 1.6 3.2 0.00 0.08 0.00 89 1014.0
20260506135052 2 123 1.6 3.2 0.00 0.08 0.00 89 1014.0
20260506134601 2 93 1.6 3.2 0.00 0.08 0.00 89 1013.9
20260506134055 2 105 1.6 3.2 0.00 0.08 0.00 89 1013.9
20260506133556 2 146 1.6 3.2 0.00 0.08 0.00 89 1014.0
20260506133053 2 105 0.0 3.2 0.00 0.08 0.00 89 1013.9
20260506132554 2 105 1.6 4.8 0.00 0.08 0.00 89 1013.9
20260506132056 2 137 1.6 4.8 0.00 0.08 0.00 89 1013.8
20260506131557 2 111 1.6 4.8 0.00 0.08 0.00 89 1013.8
20260506131054 2 119 1.6 4.8 0.00 0.08 0.00 89 1013.7
20260506130553 2 115 1.6 4.8 0.00 0.08 0.00 89 1013.7
20260506125556 2 123 1.6 4.8 0.00 0.08 0.00 89 1013.7
20260506125053 2 110 1.6 4.8 0.00 0.08 0.00 89 1013.7
20260506124554 2 129 1.6 4.8 0.00 0.08 0.00 90 1013.6
20260506124053 2 111 1.6 4.8 0.00 0.08 0.00 90 1013.6
20260506123557 2 103 1.6 4.8 0.00 0.08 0.00 90 1013.7
20260506123054 2 119 1.6 4.8 0.00 0.08 0.00 89 1013.6
20260506122551 2 115 1.6 3.2 0.00 0.08 0.00 89 1013.5
20260506122053 2 129 1.6 4.8 0.00 0.08 0.00 89 1013.5
20260506121557 2 0 0.0 4.8 0.00 0.08 0.00 89 1013.4
20260506121050 2 126 0.0 3.2 0.00 0.08 0.00 89 1013.4
20260506120554 2 146 0.0 3.2 0.00 0.08 0.00 89 1013.4
20260506120057 2 0 0.0 3.2 0.00 0.08 0.00 89 1013.4
20260506115554 2 126 0.0 3.2 0.00 0.08 0.00 89 1013.4
20260506115052 2 146 1.6 4.8 0.00 0.08 0.00 88 1013.4
20260506114556 2 108 1.6 6.4 0.00 0.08 0.00 88 1013.3
20260506114052 2 115 1.6 6.4 0.00 0.08 0.00 88 1013.4
20260506113551 2 119 3.2 6.4 0.00 0.08 0.00 88 1013.2
20260506113056 2 105 0.0 6.4 0.00 0.08 0.00 88 1013.2
20260506112551 2 129 1.6 8.0 0.00 0.08 0.00 88 1013.3
20260506112050 2 119 1.6 8.0 0.00 0.08 0.00 88 1013.2
20260506111553 2 103 0.0 9.7 0.00 0.08 0.00 88 1013.2
20260506111054 2 156 1.6 9.7 0.00 0.08 0.00 87 1013.3
20260506110557 2 144 1.6 8.0 0.00 0.08 0.00 88 1013.1
20260506110057 2 61 1.6 8.0 0.00 0.08 0.00 88 1013.1